Location: Appleton
(44.2618°N, 88.4157°W)
Time: 02:07:07
(UTC+00:00)

Tiros 1 despin weight - Pass Details

Date: 02 March 2021
Orbit: 593 x 641 km, 48.2° (Epoch: 10 April)

Event Time Altitude Azimuth Distance (km) Brightness Sun altitude
Exits shadow 09:55:48 55° 53° (NE) 766 ? -27.9°
Drops below altitude 10° 09:59:48 10° 95° (E) 2,030 ? -27.2°
Sets 10:02:10 0° 99° (E) 2,939 ? -26.8°
